Weather History for KHZY - December, 2012

Change the Weather History Date:

Saturday, December 8, 2012

  Actual Average (KYNG) Record (KYNG)
Temperature  
Mean Temperature 42 °F 33 °F  
Max Temperature 48 °F 39 °F 65 °F (1966)
Min Temperature 36 °F 26 °F 1 °F (2005)
Degree Days  
Heating Degree Days 22 32  
Month to date heating degree days 248  
Since 1 July heating degree days 1577  
Cooling Degree Days 0 0  
Month to date cooling degree days 0  
Year to date cooling degree days 544  
Moisture  
Dew Point 41 °F    
Average Humidity 88    
Maximum Humidity 93    
Minimum Humidity 76    
Precipitation  
Precipitation 0.08 in 0.11 in - ()
Month to date precipitation 0.81  
Year to date precipitation 36.73  
Snow  
Snow 0.00 in 0.50 in - ()
Month to date snowfall 3.4  
Since 1 July snowfall 7.8  
Snow Depth -    
Sea Level Pressure  
Sea Level Pressure 29.89 in    
Wind  
Wind Speed 4 mph (WNW)    
Max Wind Speed 13 mph    
Max Gust Speed 18 mph    
Visibility 4 miles    
Events Rain    
T = Trace of Precipitation, MM = Missing Value Source: NWS Daily Summary

Daily Weather History Graph

Daily Weather History Graph

Search for Another Location

Airport or City:

Trip Planner

Search our weather history database for the weather conditions in past years. The results will help you decide how hot, cold, wet, or windy it might be!

Date:

Astronomy

Dec. 08, 2012 Rise Set
Actual Time 7:37 AM EST 4:51 PM EST
Civil Twilight 7:06 AM EST 5:23 PM EST
Nautical Twilight 6:31 AM EST 5:58 PM EST
Astronomical Twilight 5:57 AM EST 6:31 PM EST
Moon 1:57 AM EST (12/8) 1:24 PM EST (12/8)
Length of Visible Light 10h 16m
Length of Day
9h 14m
Waning Crescent, 28% of the Moon is Illuminated
Dec 8
Waning Crescent
Dec 13
New
Dec 20
First Quarter
Dec 28
Full
Jan 4
Last Quarter

Hourly Weather History & Observations

Time (EST) Temp. Windchill Dew Point Humidity Pressure Visibility Wind Dir Wind Speed Gust Speed Precip Events Conditions
12:48 AM 42.8 °F 41.1 °F 39.2 °F 87% 29.87 in 1.5 mi ESE 3.5 mph - 0.02 in Rain Light Rain
12:49 AM 43.0 °F - 39.9 °F 89% 29.88 in 1.5 mi Calm Calm - 0.02 in Rain Light Rain
1:02 AM 44.6 °F - 41.0 °F 87% 29.86 in 2.5 mi Calm Calm - 0.01 in Rain Light Rain
1:16 AM 44.6 °F - 41.0 °F 87% 29.86 in 3.0 mi Calm Calm - 0.01 in Rain Light Rain
1:47 AM 44.6 °F - 41.0 °F 87% 29.85 in 1.8 mi Calm Calm - 0.01 in Rain Light Rain
1:48 AM 44.1 °F - 41.0 °F 89% 29.86 in 1.8 mi Calm Calm - 0.01 in Rain Light Rain
2:17 AM 42.8 °F - 41.0 °F 93% 29.85 in 2.0 mi Calm Calm - 0.01 in Rain Light Rain
2:27 AM 44.6 °F - 41.0 °F 87% 29.85 in 1.5 mi Calm Calm - 0.01 in   Overcast
2:48 AM 44.6 °F - 41.0 °F 87% 29.84 in 2.5 mi Calm Calm - 0.01 in Rain Light Rain
2:53 AM 44.1 °F 42.5 °F 41.0 °F 89% 29.85 in 3.0 mi East 3.5 mph - 0.01 in   Overcast
3:00 AM 44.6 °F 43.1 °F 41.0 °F 87% 29.84 in 2.0 mi East 3.5 mph - N/A   Overcast
3:06 AM 44.6 °F - 41.0 °F 87% 29.84 in 2.0 mi Calm Calm - N/A   Overcast
3:38 AM 44.6 °F - 41.0 °F 87% 29.82 in 1.8 mi Calm Calm - N/A   Overcast
3:53 AM 44.1 °F 42.5 °F 41.0 °F 89% 29.83 in 1.5 mi East 3.5 mph - 0.01 in   Overcast
4:53 AM 45.0 °F - 42.1 °F 90% 29.81 in 2.0 mi Calm Calm - 0.02 in Rain Light Rain
5:04 AM 44.6 °F - 42.8 °F 93% 29.79 in 2.0 mi Calm Calm - 0.00 in Rain Light Rain
5:21 AM 44.6 °F 43.1 °F 42.8 °F 93% 29.79 in 1.8 mi ENE 3.5 mph - 0.00 in   Overcast
5:35 AM 44.6 °F - 42.8 °F 93% 29.79 in 2.0 mi Calm Calm - 0.00 in   Overcast
5:43 AM 44.6 °F - 42.8 °F 93% 29.79 in 1.5 mi Calm Calm - 0.00 in   Overcast
6:23 AM 44.6 °F - 42.8 °F 93% 29.79 in 1.0 mi Calm Calm - 0.01 in   Overcast
6:53 AM 45.0 °F - 42.1 °F 90% 29.81 in 1.0 mi Calm Calm - 0.01 in   Overcast
7:02 AM 44.6 °F - 42.8 °F 93% 29.80 in 0.8 mi Calm Calm - N/A   Overcast
7:30 AM 44.6 °F 43.1 °F 42.8 °F 93% 29.79 in 1.0 mi SSW 3.5 mph - N/A   Overcast
7:45 AM 46.4 °F 44.3 °F 42.8 °F 87% 29.79 in 1.5 mi SSW 4.6 mph - N/A   Overcast
7:53 AM 46.0 °F 43.1 °F 44.1 °F 93% 29.80 in 2.5 mi SSW 5.8 mph - N/A   Overcast
8:00 AM 46.4 °F 43.5 °F 44.6 °F 93% 29.78 in 4.0 mi SSW 5.8 mph - N/A   Overcast
8:12 AM 46.4 °F 42.9 °F 44.6 °F 93% 29.79 in 5.0 mi SW 6.9 mph - 0.01 in   Overcast
8:23 AM 48.2 °F - 44.6 °F 87% 29.79 in 4.0 mi SW 6.9 mph - 0.01 in   Overcast
8:53 AM 48.0 °F - 45.0 °F 89% 29.81 in 4.0 mi WSW 9.2 mph - 0.01 in   Overcast
9:05 AM 48.2 °F - 44.6 °F 87% 29.82 in 2.0 mi West 9.2 mph - N/A   Overcast
9:18 AM 48.2 °F - 44.6 °F 87% 29.82 in 3.0 mi West 8.1 mph - N/A   Overcast
9:38 AM 46.4 °F 42.4 °F 44.6 °F 93% 29.82 in 4.0 mi WSW 8.1 mph - N/A   Overcast
9:53 AM 48.0 °F - 44.1 °F 86% 29.84 in 6.0 mi WSW 10.4 mph - N/A   Overcast
10:53 AM 48.0 °F - 45.0 °F 89% 29.85 in 5.0 mi West 8.1 mph - N/A   Overcast
11:53 AM 48.0 °F - 44.1 °F 86% 29.86 in 5.0 mi West 12.7 mph - N/A   Overcast
12:53 PM 46.9 °F - 44.1 °F 90% 29.84 in 4.0 mi West 6.9 mph - N/A   Overcast
1:53 PM 46.9 °F - 44.1 °F 90% 29.86 in 4.0 mi West 8.1 mph - N/A   Overcast
2:05 PM 46.4 °F 40.7 °F 42.8 °F 87% 29.85 in 3.0 mi West 12.7 mph 18.4 mph N/A   Overcast
2:15 PM 46.4 °F 40.7 °F 42.8 °F 87% 29.85 in 6.0 mi West 12.7 mph - N/A   Overcast
2:53 PM 46.0 °F 40.6 °F 42.1 °F 86% 29.88 in 10.0 mi West 11.5 mph - N/A   Overcast
3:28 PM 44.6 °F 39.7 °F 42.8 °F 93% 29.89 in 2.0 mi NNW 9.2 mph - N/A   Overcast
3:36 PM 44.6 °F 39.7 °F 41.0 °F 87% 29.90 in 1.2 mi NW 9.2 mph - N/A   Overcast
3:53 PM 43.0 °F 37.2 °F 39.9 °F 89% 29.94 in 1.8 mi NNW 10.4 mph - N/A   Overcast
4:48 PM 41.0 °F 35.2 °F 37.4 °F 87% 29.97 in 2.5 mi NNW 9.2 mph - 0.00 in Rain Light Rain
4:53 PM 41.0 °F 36.4 °F 37.0 °F 86% 29.99 in 2.5 mi NNW 6.9 mph - 0.00 in Rain Light Rain
5:00 PM 39.2 °F 34.2 °F 37.4 °F 93% 29.98 in 4.0 mi NW 6.9 mph - 0.00 in   Overcast
5:53 PM 39.0 °F 33.4 °F 36.0 °F 89% 30.02 in 4.0 mi NNW 8.1 mph - 0.01 in   Overcast
6:02 PM 39.2 °F 33.6 °F 35.6 °F 87% 30.01 in 6.0 mi NNW 8.1 mph - N/A   Overcast
6:16 PM 39.2 °F 35.0 °F 35.6 °F 87% 30.02 in 7.0 mi North 5.8 mph 16.1 mph N/A   Overcast
6:28 PM 39.2 °F 35.0 °F 35.6 °F 87% 30.03 in 10.0 mi NNW 5.8 mph - N/A   Overcast
6:53 PM 39.0 °F 36.8 °F 35.1 °F 86% 30.06 in 10.0 mi NNW 3.5 mph - N/A   Overcast
7:53 PM 37.9 °F 35.5 °F 33.1 °F 83% 30.08 in 10.0 mi North 3.5 mph - N/A   Overcast
8:53 PM 37.9 °F 33.5 °F 32.0 °F 79% 30.12 in 10.0 mi North 5.8 mph - N/A   Overcast
9:53 PM 37.0 °F 34.5 °F 30.9 °F 79% 30.14 in 10.0 mi NNE 3.5 mph - N/A   Overcast
10:53 PM 37.0 °F 34.5 °F 30.0 °F 76% 30.15 in 10.0 mi NE 3.5 mph - N/A   Overcast
11:53 PM 36.0 °F 32.1 °F 30.0 °F 79% 30.15 in 10.0 mi NE 4.6 mph - N/A   Overcast